Date String (YYYY-MM-DD hh:mm:ss) UTC,Instrument flags,Ambient pressure (hPa),Sample flow (lpm),Bypass flow (lpm),Sample temperature (°C),Ambient temperature (°C),ASC tube jacket temperature (°C),LED temperature (°C),Box temperature (°C),Sample RH (%),Span deviation,Mass concentration (μg/m³),Mass concentration (μg/m³),Mass concentration (μg/m³)
DateTimeUTC,F1_M11,P_M11,Q1_M11,Q2_M11,T1_M11,T2_M11,T3_M11,T4_M11,T5_M11,U1_M11,ZSPAN_M11,X0_M11,X2_M11,X1_M11
2023-01-13 05:00:00,,0833.4,5.01,0.00,22.5,21.3,00.0,31.2,24.3,14.8,0000.2,0029.91,0018.48,0017.37
2023-01-13 05:01:00,,0833.4,5.01,0.00,22.5,21.3,00.0,31.2,24.3,14.9,0000.1,0029.44,0018.58,0017.52
2023-01-13 05:02:00,,0833.5,5.00,0.00,22.5,21.3,00.0,31.3,24.3,14.9,0000.1,0029.40,0018.73,0017.66
2023-01-13 05:03:00,,0833.4,5.00,0.00,22.5,21.3,00.0,31.3,24.4,15.0,0000.0,0029.52,0018.85,0017.84
2023-01-13 05:04:00,,0833.5,5.00,0.00,22.5,21.4,00.0,31.3,24.4,15.0,-000.1,0029.38,0018.90,0017.93
2023-01-13 05:05:00,,0833.4,5.01,0.00,22.6,21.4,00.0,31.3,24.4,14.9,-000.1,0029.20,0018.86,0017.91
2023-01-13 05:06:00,,0833.5,5.01,0.00,22.6,21.4,00.0,31.3,24.4,14.9,0000.0,0029.04,0018.81,0017.88
2023-01-13 05:07:00,,0833.5,5.00,0.00,22.6,21.4,00.0,31.3,24.4,14.8,-000.0,0028.27,0018.55,0017.67
2023-01-13 05:08:00,,0833.5,5.00,0.00,22.6,21.4,00.0,31.4,24.4,14.8,-000.1,0026.93,0018.37,0017.55
2023-01-13 05:09:00,,0833.5,5.00,0.00,22.6,21.4,00.0,31.4,24.4,14.8,-000.1,0026.58,0018.22,0017.38
2023-01-13 05:10:00,,0833.5,5.00,0.00,22.6,21.4,00.0,31.4,24.4,14.8,-000.1,0026.37,0018.12,0017.24
2023-01-13 05:11:00,,0833.5,5.00,0.00,22.6,21.4,00.0,31.4,24.4,14.8,-000.0,0026.33,0017.96,0017.05
2023-01-13 05:12:00,,0833.4,5.01,0.00,22.6,21.3,00.0,31.4,24.4,14.7,0000.0,0025.53,0017.67,0016.75
2023-01-13 05:13:00,,0833.4,5.00,0.00,22.6,21.3,00.0,31.4,24.4,14.5,0000.0,0025.34,0017.28,0016.37
2023-01-13 05:14:00,,0833.4,5.00,0.00,22.6,21.3,00.0,31.4,24.4,14.5,0000.1,0024.93,0016.95,0016.00
2023-01-13 05:15:00,,0833.4,5.00,0.00,22.6,21.3,00.0,31.4,24.4,14.3,0000.3,0024.39,0016.56,0015.59
2023-01-13 05:16:00,,0833.4,5.00,0.00,22.6,21.3,00.0,31.4,24.4,14.0,0000.3,0023.78,0016.10,0015.13
2023-01-13 05:17:00,,0833.4,5.01,0.00,22.6,21.4,00.0,31.4,24.4,13.6,0000.3,0023.09,0015.52,0014.56
2023-01-13 05:18:00,,0833.4,4.99,0.00,22.6,21.4,00.0,31.4,24.5,13.5,0000.3,0023.42,0015.17,0014.15
2023-01-13 05:19:00,,0833.5,5.00,0.00,22.6,21.4,00.0,31.5,24.4,13.4,0000.2,0023.14,0014.73,0013.65
2023-01-13 05:20:00,,0833.5,5.01,0.00,22.6,21.4,00.0,31.5,24.4,13.3,0000.2,0022.87,0014.27,0013.17
2023-01-13 05:21:00,,0833.6,5.01,0.00,22.6,21.4,00.0,31.5,24.4,13.2,0000.1,0022.76,0013.66,0012.59
2023-01-13 05:22:00,,0833.6,5.00,0.00,22.6,21.4,00.0,31.5,24.4,13.1,-000.0,0023.21,0013.09,0012.02
2023-01-13 05:23:00,,0833.6,5.00,0.00,22.6,21.4,00.0,31.5,24.4,13.1,0000.1,0022.52,0012.58,0011.50
2023-01-13 05:24:00,,0833.6,4.99,0.00,22.6,21.4,00.0,31.5,24.4,13.1,0000.1,0021.66,0012.12,0011.02
2023-01-13 05:25:00,,0833.6,4.98,0.00,22.6,21.4,00.0,31.5,24.4,13.0,0000.6,0020.93,0011.69,0010.61
2023-01-13 05:26:00,,0833.6,4.99,0.00,22.6,21.3,00.0,31.5,24.4,13.0,0000.6,0021.37,0011.37,0010.29
2023-01-13 05:27:00,,0833.6,5.00,0.00,22.6,21.3,00.0,31.5,24.4,13.0,0000.5,0021.76,0011.22,0010.11
2023-01-13 05:28:00,,0833.6,4.99,0.00,22.6,21.3,00.0,31.5,24.4,13.0,0000.5,0021.56,0011.18,0010.07
2023-01-13 05:29:00,,0833.6,5.00,0.00,22.6,21.3,00.0,31.5,24.3,13.0,0000.6,0020.61,0011.08,0009.98
2023-01-13 05:30:00,,0833.7,5.01,0.00,22.6,21.3,00.0,31.5,24.4,13.0,0000.6,0020.30,0011.01,0009.91
2023-01-13 05:31:00,,0833.6,5.00,0.00,22.6,21.3,00.0,31.5,24.4,13.0,0000.5,0019.91,0010.97,0009.89
2023-01-13 05:32:00,,0833.6,5.00,0.00,22.6,21.2,00.0,31.5,24.3,13.0,0000.4,0019.40,0011.05,0009.95
2023-01-13 05:33:00,,0833.6,5.01,0.00,22.6,21.2,00.0,31.5,24.3,12.9,0000.6,0018.42,0011.12,0010.06
2023-01-13 05:34:00,,0833.6,5.00,0.00,22.6,21.3,00.0,31.5,24.4,12.9,0000.7,0019.16,0011.26,0010.21
2023-01-13 05:35:00,,0833.6,5.00,0.00,22.6,21.3,00.0,31.5,24.4,12.9,0000.8,0019.35,0011.39,0010.40
2023-01-13 05:36:00,,0833.6,5.00,0.00,22.6,21.3,00.0,31.5,24.3,12.8,0000.4,0019.58,0011.54,0010.58
2023-01-13 05:37:00,,0833.6,5.00,0.00,22.6,21.3,00.0,31.5,24.4,12.8,0000.3,0019.16,0011.70,0010.74
2023-01-13 05:38:00,,0833.6,4.99,0.00,22.6,21.3,00.0,31.5,24.4,12.8,0000.1,0018.65,0011.79,0010.84
2023-01-13 05:39:00,,0833.6,5.00,0.00,22.6,21.3,00.0,31.5,24.4,12.8,-000.0,0018.71,0011.89,0010.96
2023-01-13 05:40:00,,0833.6,5.01,0.00,22.6,21.3,00.0,31.5,24.4,12.8,-000.2,0018.88,0012.09,0011.15
2023-01-13 05:41:00,,0833.6,5.01,0.00,22.6,21.3,00.0,31.5,24.4,12.7,-000.0,0019.09,0012.28,0011.35
2023-01-13 05:42:00,,0833.6,4.99,0.00,22.6,21.3,00.0,31.5,24.5,12.7,-000.2,0019.31,0012.42,0011.51
2023-01-13 05:43:00,,0833.6,5.00,0.00,22.6,21.3,00.0,31.5,24.4,12.7,-000.1,0019.25,0012.46,0011.60
2023-01-13 05:44:00,,0833.6,5.01,0.00,22.6,21.3,00.0,31.5,24.4,12.7,-000.2,0018.75,0012.50,0011.65
2023-01-13 05:45:00,,0833.6,5.00,0.00,22.6,21.3,00.0,31.5,24.5,12.7,-000.5,0018.35,0012.54,0011.67
2023-01-13 05:46:00,,0833.6,5.00,0.00,22.7,21.3,00.0,31.5,24.5,12.6,-000.7,0018.08,0012.56,0011.67
2023-01-13 05:47:00,,0833.5,5.00,0.00,22.7,21.3,00.0,31.5,24.5,12.6,-000.6,0018.17,0012.53,0011.65
2023-01-13 05:48:00,,0833.6,5.00,0.00,22.7,21.3,00.0,31.5,24.5,12.6,-000.9,0017.73,0012.45,0011.60
2023-01-13 05:49:00,,0833.5,5.00,0.00,22.7,21.3,00.0,31.5,24.5,12.5,-001.0,0018.02,0012.46,0011.60
2023-01-13 05:50:00,,0833.5,4.99,0.00,22.7,21.3,00.0,31.5,24.5,12.5,-000.8,0018.09,0012.45,0011.59
2023-01-13 05:51:00,,0833.5,5.01,0.00,22.7,21.3,00.0,31.5,24.4,12.5,-000.9,0018.39,0012.35,0011.55
2023-01-13 05:52:00,,0833.5,5.00,0.00,22.7,21.3,00.0,31.5,24.5,12.5,-001.1,0018.55,0012.26,0011.51
2023-01-13 05:53:00,,0833.6,5.01,0.00,22.7,21.3,00.0,31.5,24.5,12.5,-000.9,0018.51,0012.21,0011.45
2023-01-13 05:54:00,,0833.5,5.00,0.00,22.7,21.3,00.0,31.5,24.5,12.5,-000.8,0018.59,0012.22,0011.42
2023-01-13 05:55:00,,0833.4,5.00,0.00,22.7,21.3,00.0,31.5,24.4,12.5,-000.8,0018.45,0012.18,0011.40
2023-01-13 05:56:00,,0833.4,5.00,0.00,22.6,21.3,00.0,31.5,24.4,12.5,-000.7,0018.31,0012.11,0011.39
2023-01-13 05:57:00,,0833.3,5.00,0.00,22.6,21.3,00.0,31.5,24.4,12.5,-000.8,0018.34,0012.05,0011.34
2023-01-13 05:58:00,,0833.3,4.97,0.00,22.7,21.3,00.0,31.5,24.5,12.5,-000.8,0018.17,0012.04,0011.31
2023-01-13 05:59:00,,0833.2,4.99,0.00,22.7,21.3,00.0,31.5,24.5,12.4,-000.7,0018.20,0012.03,0011.27
